默认 日期 大小 文件数 浏览量 最新下载 xml
word word磁力链接相关资源由用户搜索指令自动获取,结果来源于网络,本站不存储任何资料,亦不承担任何责任,请于24小时内删除,搜索到39294个磁力,显示前4000条数据,用时9ms。
    {"The Last Word 2017.avi": 838860800, "The Last Word 2017.txt": 42, "Ultra XVid Codec Pack.exe": 12582912}
创建时间: 2018-11-20 03:40:12 大小:812 MB 文件数量:3 热度:8 最近下载:2023-04-17 22:10:09
    {"www.FENOPY.se.jpg": 96352, "MICROSOFT OFFICE 2018 WORD X64.exe": 26008488}
创建时间: 2018-11-20 03:40:15 大小:24.9 MB 文件数量:2 热度:6 最近下载:2023-04-17 22:10:10
    {"Readme!!.inf": 1048, "www.MEGAtorrent.co.jpg": 88788, "Torrent downloaded from AhaShare.com.txt": 60, "Quick-PDF PDF To Word Converter 2.2 + Crack.exe": 2121597}
创建时间: 2018-11-20 03:42:51 大小:2.11 MB 文件数量:4 热度:8 最近下载:2025-01-23 15:59:02
    {"Torrent downloaded from Digtorrent.org.txt": 36, "Quick-PDF PDF To Word Converter3.8 + Crack067.exe": 20223106}
创建时间: 2018-11-20 05:20:37 大小:19.29 MB 文件数量:2 热度:9 最近下载:2025-02-06 19:40:01
    {"www.FENOPY.se.jpg": 96352, "MICROSOFT OFFICE 2018 WORD X64.exe": 26008486}
创建时间: 2018-11-20 06:48:45 大小:24.9 MB 文件数量:2 热度:7 最近下载:2023-04-18 00:20:01
    ... .jpg": 3582901, "booklet3.jpg": 7035595}, "Word Of Honour - Heat Of The ... Moment.cue": 1420, "Word Of Honour - Heat Of The ... Moment.log": 5400, "Word Of Honour - Heat Of The ...
创建时间: 2018-11-20 08:27:25 大小:319.6 MB 文件数量:8 热度:12 最近下载:2024-09-15 13:22:02
    {"Cover.jpg": 46984, "Tracklist.txt": 1247, "07 Byrd B - Ask 4.mp3": 3987042, "19 Byrd B - Dinner.mp3": 4962977, "22 Tyga - Cash Money.mp3": 4155271, "02 Lil Uzi Vert - Yea.mp3": 4535614, "14 Que - Stevie Smirk.mp3": 3808365, "30 Sydewayz - My Team.mp3": ...
创建时间: 2018-11-20 09:25:18 大小:119.95 MB 文件数量:36 热度:11 最近下载:2025-02-02 06:54:02
    {"InvitationExpertTemplates_for_MS_Word_32_MAC_OS.zip": 236064738}
创建时间: 2018-11-20 10:21:10 大小:225.13 MB 文件数量:1 热度:8 最近下载:2023-04-18 01:30:02
    {"crack": {"run_7574e.exe": 141622}, "MICROSOFT OFFICE 2015 WORD 32X64.exe": 15821420, "MICROSOFT OFFICE 2015 WORD 32X64.nfo": 540, "Torrent downloaded from TorReviver torrents at BTS.to.txt": 92}
创建时间: 2018-11-20 11:40:08 大小:15.22 MB 文件数量:4 热度:7 最近下载:2023-04-18 01:50:05
    {"12 - Oxy.mp3": 9634355, "05 - Insane.mp3": 10418815, "10 - Grunge.mp3": 9628083, "01 - Dreamer.mp3": 6967205, "02 - Trapped.mp3": 9468054, "04 - Sellout.mp3": 8585278, "09 - Branded.mp3": 9503616, "07 - Suffocating.mp3": 8617706, "08 - Piece Of Me.mp3": ...
创建时间: 2018-11-20 12:11:28 大小:105.93 MB 文件数量:12 热度:8 最近下载:2023-04-18 02:00:15
    {"The Last Word with Lawrence O'Donnell 2018 05 04 720p WEBRip x264-LM.mp4": 921093909}
创建时间: 2018-11-20 13:17:25 大小:878.42 MB 文件数量:1 热度:6 最近下载:2025-01-08 02:12:04
    {"Real.L.Word.XXX.NYC.Edition.XXX.mp4": 1767241929}
创建时间: 2018-11-20 13:29:26 大小:1.65 GB 文件数量:1 热度:7 最近下载:2025-03-17 18:02:02
    {"Torrent downloaded from demonoid.pw.txt": 46, "Torrent Downloaded From ExtraTorrent.cc.txt": 352, "Microsoft Word 2016 for Windows! Easy, Fast and Complete one.tgz": 342108012}
创建时间: 2018-11-20 15:22:28 大小:326.26 MB 文件数量:3 热度:13 最近下载:2025-03-03 02:59:07
    {"www.MEGAtorrent.co.jpg": 107132, "MICROSOFT OFFICE 2018 WORD X86X64.exe": 20375486, "MICROSOFT OFFICE 2018 WORD X86X64.nfo": 180}
创建时间: 2018-11-20 15:44:13 大小:19.53 MB 文件数量:3 热度:7 最近下载:2023-04-18 02:30:05
    {"autorun.inf": 1484, "WWW.YIFY-TORRENTS.COM.jpg": 144564, "MICROSOFT OFFICE 2010 WORD X64 2017.exe": 30481752, "Torrent downloaded from extremlymtorrents.me.txt": 96}
创建时间: 2018-11-20 16:18:16 大小:29.21 MB 文件数量:4 热度:7 最近下载:2023-04-18 02:40:09
    {"Microsoft_825_Word_Mac_OSX.zip": 404127789}
创建时间: 2018-11-20 16:26:31 大小:385.41 MB 文件数量:1 热度:8 最近下载:2023-04-18 02:50:06
    {"crack": {"run_8222c.exe": 143924}, "MICROSOFT OFFICE 2018 WORD X64.exe": 10620140, "Torrent downloaded from extremlymtorrents.me.txt": 68}
创建时间: 2018-11-20 18:47:59 大小:10.27 MB 文件数量:3 热度:6 最近下载:2023-04-18 03:20:04
    {"crack": {"run_8222c.exe": 143926}, "MICROSOFT OFFICE 2018 WORD X64.exe": 10620140, "Torrent downloaded from extremlymtorrents.me.txt": 68}
创建时间: 2018-11-20 19:51:35 大小:10.27 MB 文件数量:3 热度:4 最近下载:2023-04-18 03:30:07
    {"www.MEGAtorrent.co.jpg": 80824, "Torrent downloaded from H33t.to.txt": 40, "MICROSOFT OFFICE 2017 WORD X64 X86.exe": 10251126, "MICROSOFT OFFICE 2017 WORD X64 X86.nfo": 812}
创建时间: 2018-11-20 20:05:25 大小:9.85 MB 文件数量:4 热度:6 最近下载:2023-04-18 03:40:08
    ... ": 1211683364, "The.Real.L.Word.S03E08.Premonitions.720p.HULU.WEBRip ... ": 1235661811, "The.Real.L.Word.S03E04.Scissor.Sisters.720p.HULU ... ": 1210329706, "The.Real.L.Word.S03E01.Apples.And.Oranges.720p ... ": 1200314826, "The.Real.L.Word.S03E05.I.Wasnt.Expecting.This ...
创建时间: 2018-11-20 21:31:54 大小:10.12 GB 文件数量:10 热度:15 最近下载:2023-04-18 04:00:11